Regional Weather Roundup
Issued by NWS State College, PA

Home | Current Version | Previous Version | Graphics & Text | Print | Product List | Glossary On
Versions: 1 2 3 4 5 6 7 8 9 10 11 12 13 14 15 16 17 18 19 20 21 22 23 24 25 26 27 28 29 30 31 32 33 34 35 36 37 38 39 40 41 42 43 44 45 46 47 48 49 50
000
ASUS41 KCTP 201310
RWRCTP

REGIONAL WEATHER ROUNDUP
NATIONAL WEATHER SERVICE STATE COLLEGE PA
900 AM EDT SUN APR 20 2014

Note: "fair" indicates few or no clouds below 12,000 feet with no
significant weather and/or obstructions to visibility.

* = STATION THAT DOES NOT REPORT PRECIPITATION /E.G. RAIN...SNOW...ETC/
    THUNDER OR FOG.

PAZ002>004-007>009-013>016-020>023-029>032-201400-
WESTERN PENNSYLVANIA

CITY           SKY/WX    TMP DP  RH WIND       PRES   REMARKS
ERIE           SUNNY     53  25  33 S13       30.34F
MEADVILLE      NOT AVBL
FRANKLIN*      SUNNY     46  27  46 E8        30.38S
NEW CASTLE     FAIR      50  28  42 E5        30.37S
BEAVER COUNTY  NOT AVBL
BUTLER*        SUNNY     48  27  43 E6        30.38S
PITTSBURGH INT PTSUNNY   51  29  42 SE7       30.34F
PITTSBURGH     SUNNY     53  24  32 E6        30.34S
INDIANA*       SUNNY     52  27  37 E8        30.37S
LATROBE        SUNNY     54  27  35 SE7       30.36R
WASHINGTON CO* SUNNY     46  34  61 CALM      30.36F
$$

PAZ004>006-010>012-017>019-024>028-033>037-041-042-045-046-049>053-201400-
CENTRAL PENNSYLVANIA

CITY           SKY/WX    TMP DP  RH WIND       PRES   REMARKS
BRADFORD       SUNNY     44  25  47 S8        30.38R
DUBOIS         SUNNY     48  26  42 E13       30.37S
CLEARFIELD     SUNNY     44  28  53 NE7       30.41R
JOHNSTOWN      SUNNY     48  24  39 E7        30.36R
ALTOONA        MOSUNNY   48  29  47 NE5       30.40S
STATE COLLEGE  SUNNY     46  28  49 NE7       30.42F
WILLIAMSPORT   SUNNY     44  30  57 CALM      30.45R
SELINSGROVE    SUNNY     48  31  51 CALM      30.45S
FT INDIANTOWN  NOT AVBL
CAPITAL CITY   SUNNY     50  30  46 E10       30.43S
HARRISBURG     PTSUNNY   53  31  42 E13G20    30.42S
YORK           SUNNY     51  32  48 E12       30.42R
$$

PAZ038>040-043-044-047-048-054-055-060>062-067>071-201400-
EASTERN PENNSYLVANIA

CITY           SKY/WX    TMP DP  RH WIND       PRES   REMARKS
SCRANTON       SUNNY     48  27  44 VRB3      30.43F
MOUNT POCONO   MOSUNNY   42  23  46 E13       30.42R
ALLENTOWN      MOSUNNY   50  30  46 E10       30.46S
QUAKERTOWN*    MOSUNNY   48  36  61 E13G18    30.46S
READING        MOSUNNY   51  32  48 E13       30.44R
LANCASTER      MOSUNNY   49  34  56 E14       30.43R
COATESVILLE    NOT AVBL
POTTSTOWN      MOSUNNY   49  32  52 E12G18    30.46S
BLUE BELL      PTSUNNY   52  30  43 E15       30.45R
DOYLESTOWN     MOSUNNY   48  32  53 VRB6      30.45R
WILLOW GROVE   NOT AVBL
NORTH PHILA    PTSUNNY   51  28  41 E18       30.48R
PHILADELPHIA   CLOUDY    50  28  42 E15G23    30.46R
$$



USA.gov is the U.S. government's official web portal to all federal, state and local government web resources and services.